Showing default

TIROS 9, 978

Orbit data source: Space-Track

TIROS 9, 978 is a payload satellite owned by GSFC (US) in SSO that was launched on Fri, 22 Jan 1965 UTC via a THOR DELTA C launch vehicle from the Air Force Eastern Test Range (AFETR). Payload-class satellites include a variety of spacecraft equipped with specific instruments for various scientific and technological missions. These include communications satellites like Starlink; space stations such as the ISS; scientific satellites like the Hubble; Earth observation satellites from companies like Planet Labs, Umbra, and HawkEye 360; GPS; miniature CubeSats for education and research; and military/defense satellites.

Loading next visibility...
Identifier
978, 1965-004A
Orbit
SSO
Country
Flag of USUS
Related business
Manufacturer
RCA/East Windsor
Mission
Non-operational spacecraft
Bus & Motor
TIROS I, Unknown motor
Mass
138 kg wet, 138 kg dry
Launch date (UTC)
1965-01-22 (61 years ago)
Launch vehicle
THOR DELTA C
Launch site
Air Force Eastern Test Range (AFETR)
Object type
Payload
Rocket body
Debris
Shape & HBR
Unknown
Radar Cross Section
Medium (>0.1 m² and <1 m²)

Expand to show TLE details & history
Last TLE update: 6 hours ago

TLE from 6 hours ago
0 TIROS 9
1 00978U 65004A   25304.30505548  .00000162  00000-0  21700-3 0  9995
2 00978  96.4035 200.5481 1158127 169.8816 192.7921 12.11119532683900
Epoch: 2025-10-31T07:19Z
TLE epoch observation values (Epoch: 2025-10-31T07:19:16.793Z)
Latitude
-0.00006°
Longitude
50.87674°
Altitude
2,543.432 km
Speed
6.294 km/s
True Right ascension
13h 22m 11s
True Declination
0° 00' 00"
Sunlit
Object was in daylight at epoch
Visualization orbit readout
Latitude
Unknown
Longitude
Unknown
Altitude
Unknown
Speed
Unknown
Apparent Right ascension
Unknown
Apparent Declination
Unknown
Sunlit
N/A
Visualization observer readout
Local Sidereal Time
08:46:05
Azimuth
Unknown
Elevation
Unknown
Doppler factor
Unknown
Orbital elements
Apogee altitude
2,556.062 km
Perigee altitude
701.461 km
Semi-major axis
8,006.899 km
Eccentricity
0.11581
Inclination
96.4035°
RAAN
200.5481°
Arg. of periapsis
169.8816°
True anomaly
190.21948°
Mean anomaly
192.7921°
Eccentric anomaly
191.47232°
Mean motion
3.02933 °/min
Orbital period
118.84 mins
BSTAR
0.000217
Loading maneuver chart data...
Computing Atmospheric mass density...
Loading historical data...
Loading historical data...
Loading historical data...
Loading historical data...
Loading historical data...
Loading historical data...
Loading historical data...
Other satellites on launch #4 in the year 1965 (1965-01-22 UTC)

Documentation

Showing up to 5 results
|